This demonstration page uses our WeatherBlox Daily Observations layout. Learn more.

38.88101, -77.10428

Hourly Observations for April 18, 2020

Temp ( °F °C ) Dew Point ( °F °C ) Humidity (%) Winds ( mph kmh ) Pressure ( in mb ) Visibility ( mi km ) Precip ( " mm )
12:52 am 00:52 Mostly Clear 49 9.4 43 6.1 80 80 NNE 6 9 29.83 1010 10 16.0934 0 0
1:52 am 01:52 Mostly Clear 48 8.9 43 6.1 83 83 NNE 6 9 29.81 1009 10 16.0934 0 0
2:52 am 02:52 Mostly Cloudy 50 10 43 6.1 77 77 ENE 5 7 29.79 1009 10 16.0934 0 0
3:52 am 03:52 Cloudy 50 10 41 5 71 71 NE 5 7 29.78 1008 10 16.0934 0 0
4:52 am 04:52 Cloudy 50 10 41 5 71 71 Calm 29.76 1008 10 16.0934 0 0
5:52 am 05:52 Cloudy 49 9.4 42 5.6 77 77 Calm 29.76 1008 10 16.0934 0 0
6:52 am 06:52 Cloudy with Light Rain 49 9.4 43 6.1 80 80 WNW 3 6 29.78 1008 8 12.87472 0.02 0.508
7:52 am 07:52 Cloudy with Light Rain 49 9.4 46 7.8 90 90 S 6 9 29.75 1008 7 11.26538 0.03 0.762
8:52 am 08:52 Cloudy 50 10 47 8.3 89 89 WSW 6 9 29.78 1008 10 16.0934 0.01 0.254
9:52 am 09:52 Cloudy with Light Rain 50 10 46 7.8 86 86 NW 12 19 29.8 1009 10 16.0934 0.001 0.001
10:52 am 10:52 Cloudy 51 10.6 45 7.2 80 80 NNW 15 24 29.82 1010 10 16.0934 0.001 0.001
11:52 am 11:52 Cloudy 51 10.6 41 5 69 69 NW 22 35 29.85 1011 10 16.0934 0 0
12:52 pm 12:52 Cloudy 51 10.6 38 3.3 61 61 NNW 20 31 29.87 1011 10 16.0934 0 0
1:52 pm 13:52 Mostly Cloudy 52 11.1 35 1.7 53 53 NW 21 33 29.88 1012 10 16.0934 0 0
2:52 pm 14:52 Partly Cloudy 53 11.7 33 0.6 47 47 NW 28 44 29.91 1013 10 16.0934 0 0
3:52 pm 15:52 Partly Cloudy 55 12.8 33 0.6 44 44 NW 17 28 29.91 1013 10 16.0934 0 0
4:52 pm 16:52 Partly Cloudy 55 12.8 32 0 42 42 NNW 15 24 29.93 1013 10 16.0934 0 0
5:52 pm 17:52 Partly Cloudy 54 12.2 30 -1.1 40 40 NNW 13 20 29.94 1014 10 16.0934 0 0
6:52 pm 18:52 Partly Cloudy 53 11.7 30 -1.1 41 41 NNW 12 19 29.94 1014 10 16.0934 0 0
7:52 pm 19:52 Mostly Clear 51 10.6 27 -2.8 39 39 NW 7 11 29.94 1014 10 16.0934 0 0
8:52 pm 20:52 Clear 49 9.4 28 -2.2 44 44 WSW 6 9 29.97 1015 10 16.0934 0 0
9:52 pm 21:52 Clear 48 8.9 29 -1.7 48 48 W 6 9 29.99 1016 10 16.0934 0 0
10:52 pm 22:52 Clear 47 8.3 29 -1.7 50 50 WSW 6 9 30 1016 10 16.0934 0 0
11:52 pm 23:52 Clear 46 7.8 30 -1.1 54 54 W 7 11 30.02 1017 10 16.0934 0 0

Powered by AerisWeather